TimeEST,TemperatureF,Dew PointF,Humidity,Sea Level PressureIn,VisibilityMPH,Wind Direction,Wind SpeedMPH,Gust SpeedMPH,PrecipitationIn,Events,Conditions,WindDirDegrees,DateUTC
12:16 AM,25.0,17.1,72,30.30,10.0,WSW,3.5,-,N/A,,Overcast,240,2014-02-04 05:16:00
12:54 AM,21.0,15.1,78,30.32,10.0,Calm,Calm,-,N/A,,Clear,0,2014-02-04 05:54:00
1:33 AM,15.1,12.0,88,30.34,1.0,Calm,Calm,-,N/A,,Clear,0,2014-02-04 06:33:00
1:40 AM,14.0,10.9,88,30.34,0.8,Calm,Calm,-,N/A,,Clear,0,2014-02-04 06:40:00
1:51 AM,14.0,10.4,86,30.35,0.2,Calm,Calm,-,N/A,Fog,Light Freezing Fog,0,2014-02-04 06:51:00
1:54 AM,15.1,12.0,88,30.37,0.5,Calm,Calm,-,N/A,Fog,Light Freezing Fog,0,2014-02-04 06:54:00
1:57 AM,16.0,12.9,88,30.35,1.5,Calm,Calm,-,N/A,,Partly Cloudy,0,2014-02-04 06:57:00
2:08 AM,7.0,6.1,96,30.35,0.2,Calm,Calm,-,N/A,Fog,Light Freezing Fog,0,2014-02-04 07:08:00
2:41 AM,3.9,1.9,91,30.34,1.5,Calm,Calm,-,N/A,,Scattered Clouds,0,2014-02-04 07:41:00
2:43 AM,6.1,3.0,87,30.34,4.0,Calm,Calm,-,N/A,,Scattered Clouds,0,2014-02-04 07:43:00
2:51 AM,8.6,6.8,92,30.35,1.8,Calm,Calm,-,N/A,,Partly Cloudy,0,2014-02-04 07:51:00
2:54 AM,10.0,7.0,87,30.37,1.5,SW,3.5,-,N/A,,Partly Cloudy,220,2014-02-04 07:54:00
3:07 AM,8.1,6.1,92,30.35,0.8,Calm,Calm,-,N/A,,Clear,0,2014-02-04 08:07:00
3:31 AM,6.1,3.9,91,30.36,0.2,Calm,Calm,-,N/A,Fog,Light Freezing Fog,0,2014-02-04 08:31:00
3:47 AM,6.1,3.9,91,30.37,0.5,Calm,Calm,-,N/A,Fog,Light Freezing Fog,0,2014-02-04 08:47:00
3:54 AM,3.9,1.9,91,30.39,0.5,Calm,Calm,-,N/A,Fog,Light Freezing Fog,0,2014-02-04 08:54:00
3:59 AM,1.0,-0.9,91,30.36,1.2,Calm,Calm,-,N/A,,Clear,0,2014-02-04 08:59:00
4:02 AM,3.9,-0.0,84,30.36,0.8,Calm,Calm,-,N/A,,Clear,0,2014-02-04 09:02:00
4:13 AM,6.1,3.0,87,30.37,0.5,Calm,Calm,-,N/A,Fog,Light Freezing Fog,0,2014-02-04 09:13:00
4:43 AM,3.9,1.0,88,30.37,0.8,Calm,Calm,-,N/A,,Clear,0,2014-02-04 09:43:00
4:54 AM,1.9,-0.9,88,30.40,0.8,Calm,Calm,-,N/A,,Clear,0,2014-02-04 09:54:00
5:16 AM,3.0,-0.0,87,30.37,0.5,Calm,Calm,-,N/A,Fog,Light Freezing Fog,0,2014-02-04 10:16:00
5:24 AM,3.0,-0.0,87,30.38,0.8,Calm,Calm,-,N/A,,Scattered Clouds,0,2014-02-04 10:24:00
5:26 AM,3.0,-0.0,87,30.38,1.0,Calm,Calm,-,N/A,,Mostly Cloudy,0,2014-02-04 10:26:00
5:30 AM,3.9,-0.0,84,30.38,2.5,Calm,Calm,-,N/A,,Mostly Cloudy,0,2014-02-04 10:30:00
5:37 AM,3.0,-0.0,87,30.39,6.0,Calm,Calm,-,N/A,,Mostly Cloudy,0,2014-02-04 10:37:00
5:40 AM,1.9,-0.9,88,30.39,2.0,Calm,Calm,-,N/A,,Mostly Cloudy,0,2014-02-04 10:40:00
5:43 AM,1.0,-0.9,91,30.39,1.0,Calm,Calm,-,N/A,,Mostly Cloudy,0,2014-02-04 10:43:00
5:54 AM,6.1,3.9,91,30.42,3.0,Calm,Calm,-,0.00,,Mostly Cloudy,0,2014-02-04 10:54:00
6:11 AM,1.9,-2.0,83,30.40,10.0,Calm,Calm,-,0.00,,Scattered Clouds,0,2014-02-04 11:11:00
6:54 AM,1.9,-2.0,83,30.44,10.0,Calm,Calm,-,0.00,,Clear,0,2014-02-04 11:54:00
7:54 AM,5.0,1.9,87,30.46,6.0,Calm,Calm,-,0.00,,Clear,0,2014-02-04 12:54:00
8:54 AM,12.0,10.9,95,30.47,6.0,Calm,Calm,-,0.00,,Clear,0,2014-02-04 13:54:00
9:54 AM,17.1,16.0,96,30.49,9.0,Calm,Calm,-,N/A,,Clear,0,2014-02-04 14:54:00
10:54 AM,24.1,17.1,75,30.48,10.0,Calm,Calm,-,N/A,,Clear,0,2014-02-04 15:54:00
11:54 AM,26.1,15.1,63,30.45,10.0,NNE,4.6,-,N/A,,Clear,20,2014-02-04 16:54:00
12:54 PM,28.9,16.0,58,30.42,10.0,North,3.5,-,N/A,,Clear,10,2014-02-04 17:54:00
1:54 PM,28.9,16.0,58,30.41,10.0,Calm,Calm,-,N/A,,Clear,0,2014-02-04 18:54:00
2:54 PM,28.9,17.1,61,30.39,10.0,South,4.6,-,N/A,,Clear,180,2014-02-04 19:54:00
3:54 PM,30.0,17.1,59,30.37,10.0,Calm,Calm,-,N/A,,Clear,0,2014-02-04 20:54:00
4:54 PM,28.9,17.1,61,30.36,10.0,Calm,Calm,-,N/A,,Clear,0,2014-02-04 21:54:00
5:54 PM,28.0,19.9,72,30.40,10.0,Calm,Calm,-,N/A,,Clear,0,2014-02-04 22:54:00
6:54 PM,28.0,21.0,75,30.37,10.0,NNE,4.6,-,N/A,,Scattered Clouds,30,2014-02-04 23:54:00
7:54 PM,28.0,19.0,69,30.37,10.0,North,3.5,-,N/A,,Scattered Clouds,360,2014-02-05 00:54:00
8:54 PM,27.0,19.9,75,30.39,10.0,WSW,3.5,-,N/A,,Clear,250,2014-02-05 01:54:00
9:54 PM,25.0,19.0,78,30.36,10.0,NE,3.5,-,N/A,,Clear,40,2014-02-05 02:54:00
10:54 PM,27.0,18.0,69,30.32,10.0,NNE,4.6,-,N/A,,Mostly Cloudy,20,2014-02-05 03:54:00
11:54 PM,27.0,18.0,69,30.27,10.0,NNE,4.6,-,N/A,,Overcast,30,2014-02-05 04:54:00